Location: Couloutre
(47.4081°N, 3.2259°E)
Time: 20:07:50
(UTC+00:00)

Cosmos 2034 Rocket - Pass Details

Date: 27 February 2020
Orbit: 958 x 1000 km, 82.9° (Epoch: 29 March)

Event Time Altitude Azimuth Distance (km) Brightness Sun altitude
Rises 18:26:16 0° 164° (SSE) 3,633 6.8 -10.6°
Reaches altitude 10° 18:28:53 10° 157° (SSE) 2,688 6.1 -11.0°
Maximum altitude 18:34:35 42° 89° (E) 1,348 4.3 -12.0°
Drops below altitude 10° 18:40:19 10° 21° (NNE) 2,703 6.1 -13.0°
Sets 18:42:56 0° 15° (NNE) 3,656 6.9 -13.4°
